CW6242 Cefala IT current weather conditions

sailwx.info

Wind from 202 at 2 knots gusting 4

Air temperature 22.2° C
Dewpoint 19.8° C

Last reported at 2019-Jul-20 21:00 UTC.
Time now 2019-Jul-20 21:54 UTC

Location: N 38°01' E 013°58'.
View on Google Maps.

See reports from other nearby stations

  
Tides and Currents Weather Stations Pressure Air Temp Water Temp Dewpoint Dewpoint Depression Visibility Wind Speed Wind Dir Waves Ship Positions
date/time (UTC)wind fromknots sea level pressurealtimeterstation pressurevisibilityair tempwater tempwave heightnotes
2019-Jul-20 21:00 202 2 gusting 4 22.2
2019-Jul-20 20:50 225 2 gusting 4 22.2
2019-Jul-20 20:40 202 3 gusting 6 22.8
2019-Jul-20 20:30 202 3 gusting 6 22.8
2019-Jul-20 20:20 202 3 gusting 6 22.8
2019-Jul-20 20:10 225 3 gusting 6 22.8
2019-Jul-20 20:00 225 5 gusting 7 22.8
2019-Jul-20 19:50 225 4 gusting 7 22.8
2019-Jul-20 19:40 225 1 gusting 5 22.8
2019-Jul-20 19:30 22.8
2019-Jul-20 19:20 22.8
2019-Jul-20 19:10 22.8
2019-Jul-20 19:00 22.8
2019-Jul-20 18:50 045 1 gusting 3 22.8
2019-Jul-20 18:40 067 1 gusting 4 23.3
2019-Jul-20 18:30 045 2 gusting 5 23.3
2019-Jul-20 18:20 045 2 gusting 6 23.3
2019-Jul-20 18:10 045 2 gusting 5 23.3
2019-Jul-20 18:00 045 4 gusting 7 23.3
2019-Jul-20 17:50 045 3 gusting 6 23.9
2019-Jul-20 17:40 045 3 gusting 8 23.9
2019-Jul-20 17:30 067 4 gusting 9 23.9
2019-Jul-20 17:20 067 5 gusting 12 23.9
2019-Jul-20 17:10 045 4 gusting 9 24.4
2019-Jul-20 17:00 045 5 gusting 11 24.4
2019-Jul-20 16:50 045 5 gusting 9 23.9
2019-Jul-20 16:40 045 5 gusting 9 23.9
2019-Jul-20 16:30 045 4 gusting 8 23.9
2019-Jul-20 16:20 045 5 gusting 8 23.9
2019-Jul-20 16:10 045 5 gusting 10 23.9
2019-Jul-20 16:00 045 5 gusting 9 23.9
2019-Jul-20 15:50 045 6 gusting 10 23.9
2019-Jul-20 15:40 045 6 gusting 9 23.9
2019-Jul-20 15:30 045 6 gusting 11 23.9
2019-Jul-20 15:20 045 6 gusting 9 24.4
2019-Jul-20 15:10 045 5 gusting 9 24.4
2019-Jul-20 15:00 045 5 gusting 10 24.4
2019-Jul-20 14:50 045 5 gusting 9 25.0
2019-Jul-20 14:40 045 6 gusting 9 25.0
2019-Jul-20 14:30 045 5 gusting 10 25.0
2019-Jul-20 14:20 045 5 gusting 11 25.6
2019-Jul-20 14:10 045 5 gusting 13 25.6
2019-Jul-20 14:00 045 5 gusting 13 25.6
2019-Jul-20 13:50 045 5 gusting 10 25.6
2019-Jul-20 13:40 045 6 gusting 11 25.6
2019-Jul-20 13:30 045 6 gusting 11 25.6
2019-Jul-20 13:20 045 6 gusting 11 25.6
2019-Jul-20 13:10 045 6 gusting 11 25.6
2019-Jul-20 13:00 045 5 gusting 9 25.0
2019-Jul-20 12:50 045 5 gusting 9 25.6
2019-Jul-20 12:40 045 5 gusting 10 25.0
2019-Jul-20 12:30 045 6 gusting 10 25.0
2019-Jul-20 12:20 045 5 gusting 9 25.0
2019-Jul-20 12:10 045 5 gusting 9 25.6
2019-Jul-20 12:00 045 5 gusting 9 25.6
2019-Jul-20 11:50 045 5 gusting 8 25.6
2019-Jul-20 11:40 045 5 gusting 12 25.6
2019-Jul-20 11:30 045 5 gusting 12 25.6
2019-Jul-20 11:20 045 5 gusting 9 25.6
2019-Jul-20 11:10 045 5 gusting 10 25.6
2019-Jul-20 11:00 045 5 gusting 10 25.6
2019-Jul-20 10:50 045 5 gusting 8 25.6
2019-Jul-20 10:40 045 5 gusting 9 26.1
2019-Jul-20 10:30 045 5 gusting 10 26.1
2019-Jul-20 10:20 045 4 gusting 7 26.1
2019-Jul-20 10:10 045 4 gusting 8 26.1
2019-Jul-20 10:00 045 4 gusting 7 26.1
2019-Jul-20 09:50 045 4 gusting 8 26.1
2019-Jul-20 09:40 045 4 gusting 8 26.1
2019-Jul-20 09:30 045 4 gusting 8 25.6
2019-Jul-20 09:20 045 5 gusting 10 25.6
2019-Jul-20 09:10 045 5 gusting 12 25.6
2019-Jul-20 09:00 067 5 gusting 12 25.6
2019-Jul-20 08:50 045 4 gusting 9 25.6
2019-Jul-20 08:40 045 4 gusting 9 25.6
2019-Jul-20 08:30 045 5 gusting 10 25.6
2019-Jul-20 08:20 045 4 gusting 10 25.6
2019-Jul-20 08:10 045 4 gusting 8 25.6
2019-Jul-20 08:00 067 5 gusting 8 25.6
2019-Jul-20 07:50 067 3 gusting 7 25.6
2019-Jul-20 07:40 067 4 gusting 11 25.6
2019-Jul-20 07:30 067 6 gusting 9 25.0
2019-Jul-20 07:20 067 5 gusting 9 25.0
2019-Jul-20 07:10 067 5 gusting 9 24.4
2019-Jul-20 07:00 067 4 gusting 8 25.0
2019-Jul-20 06:50 067 4 gusting 8 24.4
2019-Jul-20 06:40 067 4 gusting 8 24.4
2019-Jul-20 06:30 067 4 gusting 8 23.9
2019-Jul-20 06:20 067 3 gusting 7 23.9
2019-Jul-20 06:10 067 4 gusting 7 23.9
2019-Jul-20 06:00 067 3 gusting 6 23.9
2019-Jul-20 05:50 067 2 gusting 6 23.3
2019-Jul-20 05:40 067 3 gusting 6 22.8
2019-Jul-20 05:30 067 4 gusting 6 22.8
2019-Jul-20 05:20 067 3 gusting 6 22.8
2019-Jul-20 05:10 090 3 gusting 5 22.8
2019-Jul-20 05:00 090 2 gusting 6 22.2
2019-Jul-20 04:50 090 2 gusting 3 22.2
2019-Jul-20 04:40 090 0 gusting 2 21.7
2019-Jul-20 04:30 21.7
2019-Jul-20 04:20 21.1
2019-Jul-20 04:10 21.1
2019-Jul-20 04:00 21.1
2019-Jul-20 03:50 21.1
2019-Jul-20 03:40 21.1
2019-Jul-20 03:30 20.6
2019-Jul-20 03:20 20.6
2019-Jul-20 03:10 21.1
2019-Jul-20 03:00 21.1
2019-Jul-20 02:50 21.1
2019-Jul-20 02:40 21.1
2019-Jul-20 02:30 180 0 gusting 2 20.6
2019-Jul-20 02:20 180 1 gusting 3 20.6
2019-Jul-20 02:10 180 1 gusting 3 20.6
2019-Jul-20 02:00 180 1 gusting 3 20.6
2019-Jul-20 01:50 180 1 gusting 3 20.6
2019-Jul-20 01:40 180 1 gusting 3 20.6
2019-Jul-20 01:30 180 1 gusting 4 20.6
2019-Jul-20 01:20 180 2 gusting 4 20.6
2019-Jul-20 01:10 180 2 gusting 3 20.6
2019-Jul-20 01:00 180 0 gusting 2 21.1
2019-Jul-20 00:50 180 2 gusting 3 20.6
2019-Jul-20 00:40 180 1 gusting 3 20.6
2019-Jul-20 00:30 202 2 gusting 3 20.6
2019-Jul-20 00:20 180 2 gusting 4 21.1
2019-Jul-20 00:10 202 0 gusting 2 21.1
2019-Jul-20 00:00 202 1 gusting 2 21.1
2019-Jul-19 23:50 270 0 gusting 2 21.1
2019-Jul-19 23:40 270 0 gusting 1 21.7
2019-Jul-19 23:30 21.7
2019-Jul-19 23:20 21.7
2019-Jul-19 23:10 21.7
2019-Jul-19 23:00 21.7
2019-Jul-19 22:50 21.7
2019-Jul-19 22:40 21.7
2019-Jul-19 22:30 21.7
2019-Jul-19 22:20 21.7
2019-Jul-19 22:10 21.7
2019-Jul-19 22:00 135 0 gusting 1 21.7
2019-Jul-19 21:50 112 1 gusting 2 21.7
2019-Jul-19 21:40 135 2 gusting 6 21.7
2019-Jul-19 21:30 112 3 gusting 6 21.7
2019-Jul-19 21:20 067 5 gusting 7 22.2
2019-Jul-19 21:10 067 5 gusting 8 21.7
2019-Jul-19 21:00 067 5 gusting 8 22.2
2019-Jul-19 20:50 090 6 gusting 11 22.2
2019-Jul-19 20:40 090 5 gusting 8 22.2
2019-Jul-19 20:30 090 6 gusting 9 22.2
2019-Jul-19 20:20 090 6 gusting 10 22.2
2019-Jul-19 20:10 090 5 gusting 9 22.2
2019-Jul-19 20:00 067 6 gusting 10 22.2
2019-Jul-19 19:50 090 6 gusting 10 22.2
2019-Jul-19 19:40 067 5 gusting 9 22.2
2019-Jul-19 19:30 067 5 gusting 9 22.2
2019-Jul-19 19:20 067 5 gusting 9 22.2
2019-Jul-19 19:10 090 6 gusting 9 22.2
2019-Jul-19 19:00 067 6 gusting 9 22.2
2019-Jul-19 18:50 067 6 gusting 10 22.2
2019-Jul-19 18:40 067 4 gusting 7 22.2
2019-Jul-19 18:30 067 5 gusting 9 22.8
2019-Jul-19 18:20 045 4 gusting 7 22.8
2019-Jul-19 18:10 045 3 gusting 6 22.8
2019-Jul-19 18:00 045 4 gusting 7 22.8
2019-Jul-19 17:50 045 4 gusting 7 22.8
2019-Jul-19 17:40 045 4 gusting 8 22.8
2019-Jul-19 17:30 045 4 gusting 9 22.8
2019-Jul-19 17:20 045 5 gusting 8 22.8
2019-Jul-19 17:10 045 5 gusting 8 22.8
2019-Jul-19 17:00 045 5 gusting 9 23.3
2019-Jul-19 16:50 045 5 gusting 8 23.3
2019-Jul-19 16:40 045 5 gusting 9 22.8
2019-Jul-19 16:30 045 5 gusting 9 22.8
2019-Jul-19 16:20 045 5 gusting 8 22.8
2019-Jul-19 16:10 045 5 gusting 8 22.8
2019-Jul-19 16:00 045 6 gusting 13 23.3
2019-Jul-19 15:50 045 6 gusting 13 23.3
2019-Jul-19 15:40 045 6 gusting 12 23.3
2019-Jul-19 15:30 045 5 gusting 10 23.3
2019-Jul-19 15:20 045 5 gusting 10 23.3
2019-Jul-19 15:10 045 6 gusting 14 23.3
2019-Jul-19 15:00 045 7 gusting 19 23.3
2019-Jul-19 14:50 045 6 gusting 14 23.3
2019-Jul-19 14:40 045 6 gusting 12 23.3
2019-Jul-19 14:30 045 6 gusting 13 23.9
2019-Jul-19 14:20 045 6 gusting 13 23.9
2019-Jul-19 14:10 045 6 gusting 11 23.9
2019-Jul-19 14:00 045 6 gusting 14 23.9
2019-Jul-19 13:50 045 5 gusting 9 23.9
2019-Jul-19 13:40 045 6 gusting 14 24.4
2019-Jul-19 13:30 045 5 gusting 10 23.9
2019-Jul-19 13:20 045 5 gusting 13 24.4
2019-Jul-19 13:10 045 5 gusting 8 24.4
2019-Jul-19 13:00 045 5 gusting 8 24.4
2019-Jul-19 12:50 045 5 gusting 9 24.4
2019-Jul-19 12:40 045 4 gusting 8 25.0
2019-Jul-19 12:30 045 4 gusting 9 24.4
2019-Jul-19 12:20 045 5 gusting 9 25.0
2019-Jul-19 12:10 045 5 gusting 9 25.0
2019-Jul-19 12:00 045 5 gusting 10 25.0
2019-Jul-19 11:50 045 6 gusting 9 24.4
2019-Jul-19 11:40 045 5 gusting 9 25.0
2019-Jul-19 11:30 045 5 gusting 9 25.0
2019-Jul-19 11:20 045 5 gusting 9 25.0
2019-Jul-19 11:10 045 5 gusting 8 25.0
2019-Jul-19 11:00 045 5 gusting 9 25.0
2019-Jul-19 10:50 045 5 gusting 9 25.0
2019-Jul-19 10:40 045 5 gusting 8 25.0
2019-Jul-19 10:30 045 5 gusting 10 25.6
2019-Jul-19 10:20 045 5 gusting 11 25.6
2019-Jul-19 10:10 045 5 gusting 9 25.6
2019-Jul-19 10:00 045 5 gusting 11 25.6
2019-Jul-19 09:50 045 6 gusting 12 25.6
2019-Jul-19 09:40 045 5 gusting 10 25.6
2019-Jul-19 09:30 045 5 gusting 10 25.6
2019-Jul-19 09:20 067 6 gusting 13 25.0
2019-Jul-19 09:10 067 6 gusting 12 25.0
2019-Jul-19 09:00 045 4 gusting 10 25.6
2019-Jul-19 08:50 045 4 gusting 9 25.6
2019-Jul-19 08:40 067 6 gusting 11 25.6
2019-Jul-19 08:30 045 4 gusting 11 25.6
2019-Jul-19 08:20 045 4 gusting 8 25.6
2019-Jul-19 08:10 045 4 gusting 9 25.0
2019-Jul-19 08:00 045 4 gusting 8 25.0
2019-Jul-19 07:50 045 4 gusting 8 25.0
2019-Jul-19 07:40 045 3 gusting 7 25.0
2019-Jul-19 07:30 045 4 gusting 10 25.0
2019-Jul-19 07:20 045 4 gusting 8 25.0
2019-Jul-19 07:10 045 4 gusting 8 25.0
2019-Jul-19 07:00 045 3 gusting 6 25.0
2019-Jul-19 06:50 067 3 gusting 9 24.4
2019-Jul-19 06:40 067 3 gusting 9 24.4
2019-Jul-19 06:30 067 4 gusting 7 23.9
2019-Jul-19 06:20 067 3 gusting 7 23.3
2019-Jul-19 06:10 067 4 gusting 7 23.3
2019-Jul-19 06:00 067 3 gusting 7 23.3
2019-Jul-19 05:50 067 3 gusting 7 23.3
2019-Jul-19 05:40 067 3 gusting 6 22.8
2019-Jul-19 05:30 067 3 gusting 6 22.8
2019-Jul-19 05:20 090 2 gusting 5 22.8
2019-Jul-19 05:10 090 2 gusting 5 22.2
2019-Jul-19 05:00 090 0 gusting 3 22.2
2019-Jul-19 04:50 090 0 gusting 2 21.7
2019-Jul-19 04:40 21.1
2019-Jul-19 04:30 135 0 gusting 2 20.6
2019-Jul-19 04:20 157 0 gusting 3 20.0
2019-Jul-19 04:10 180 1 gusting 5 20.0
2019-Jul-19 04:00 157 3 gusting 6 20.0
2019-Jul-19 03:50 180 2 gusting 5 20.0
2019-Jul-19 03:40 180 2 gusting 4 20.0
2019-Jul-19 03:30 180 2 gusting 4 20.0
2019-Jul-19 03:20 180 0 gusting 1 20.6
2019-Jul-19 03:10 180 1 gusting 2 20.0
2019-Jul-19 03:00 202 2 gusting 3 20.0
2019-Jul-19 02:50 180 0 gusting 2 20.6
2019-Jul-19 02:40 180 0 gusting 2 20.6
2019-Jul-19 02:30 180 0 gusting 2 20.6
2019-Jul-19 02:20 180 1 gusting 4 20.6
2019-Jul-19 02:10 180 2 gusting 4 20.0
2019-Jul-19 02:00 180 2 gusting 5 20.0
2019-Jul-19 01:50 180 2 gusting 4 20.0
2019-Jul-19 01:40 180 2 gusting 5 20.0
2019-Jul-19 01:30 180 1 gusting 5 20.0
2019-Jul-19 01:20 21.1
2019-Jul-19 01:10 21.1
2019-Jul-19 01:00 21.1
2019-Jul-19 00:50 202 0 gusting 3 20.6
2019-Jul-19 00:40 157 2 gusting 6 20.0
2019-Jul-19 00:30 180 1 gusting 3 20.0
2019-Jul-19 00:20 180 2 gusting 6 20.6
2019-Jul-19 00:10 202 1 gusting 3 20.0
2019-Jul-19 00:00 180 0 gusting 1 20.0
2019-Jul-18 23:50 157 1 gusting 5 20.0
2019-Jul-18 23:40 157 2 gusting 6 20.0
2019-Jul-18 23:30 180 2 gusting 6 20.0
2019-Jul-18 23:20 180 2 gusting 6 20.0
2019-Jul-18 23:10 180 3 gusting 4 20.6
2019-Jul-18 23:00 202 2 gusting 4 20.6
2019-Jul-18 22:50 202 2 gusting 4 20.6
2019-Jul-18 22:40 202 2 gusting 5 20.6
2019-Jul-18 22:30 180 2 gusting 5 20.6
2019-Jul-18 22:20 180 3 gusting 4 20.6
2019-Jul-18 22:10 180 2 gusting 4 20.6
2019-Jul-18 22:00 157 2 gusting 5 20.6
2019-Jul-18 21:50 180 2 gusting 6 20.6
2019-Jul-18 21:40 180 3 gusting 5 20.6
2019-Jul-18 21:30 180 3 gusting 4 21.1
2019-Jul-18 21:20 180 2 gusting 5 21.1
2019-Jul-18 21:10 157 2 gusting 5 20.6
2019-Jul-18 21:00 180 2 gusting 6 21.1